Regional Weather Roundup
Issued by NWS Northern Indiana

Home | Current Version | Previous Version | Text Only | Print | Product List | Glossary Off
Versions: 1 2 3 4 5 6 7 8 9 10 11 12 13 14 15 16 17 18 19 20 21 22 23 24 25 26 27 28 29 30 31 32 33 34 35 36 37 38 39 40 41 42 43 44 45 46 47 48 49 50

000
ASUS43 KIWX 040610
RWRIWX

KIWX WEATHER ROUNDUP
NATIONAL WEATHER SERVICE NORTHERN INDIANA
200 AM EDT FRI SEP 04 2015

NOTE: "FAIR" INDICATES FEW OR NO CLOUDS BELOW 12,000 FEET WITH NO
SIGNIFICANT WEATHER AND/OR OBSTRUCTIONS TO VISIBILITY.

* THESE STATIONS ARE NOT UNDER NWS QUALITY CONTROL. THEY ALSO MAY NOT
  REPORT WEATHER SUCH AS PRECIPITATION OR FOG.

INZ001>027-040700-
NORTHERN INDIANA

CITY           SKY/WX    TMP DP  RH WIND       PRES   REMARKS
GARY*          PTCLDY    73  68  84 NE5       29.97S
VALPARAISO     MOCLDY    71  67  87 N3        29.97R
6HR MIN TEMP:  70; 6HR MAX TEMP:  84;

MICHIGAN CITY* CLEAR     68  68 100 CALM      29.97R
LAPORTE*       CLEAR     71  71 100 N3        29.97R
6HR MIN TEMP:  71; 6HR MAX TEMP:  83;

KNOX*          CLEAR     68  68 100 N5        29.95S
SOUTH BEND     CLEAR     68  66  93 W3        29.96S
6HR MIN TEMP:  68; 6HR MAX TEMP:  83;

GOSHEN         CLEAR     70  68  93 W3        29.95R FOG
6HR MIN TEMP:  69; 6HR MAX TEMP:  83;

MONTICELLO*    CLEAR     72  70  93 S3        29.94S
6HR MIN TEMP:  72; 6HR MAX TEMP:  83;

LOGANSPORT*    CLEAR     72  63  73 SW7       29.96R
ROCHESTER*     CLEAR     77  70  78 W5        29.96R
WARSAW*        PTCLDY    72  68  88 W5        29.95S
ANGOLA*        PTCLDY    70  61  73 CALM      29.96R
FORT WAYNE     PTCLDY    71  67  87 SW3       29.95R
6HR MIN TEMP:  71; 6HR MAX TEMP:  81;

HUNTINGTON*    CLEAR     71  65  82 CALM      29.95S
6HR MIN TEMP:  71; 6HR MAX TEMP:  82;

PERU/GRISSOM   CLEAR     71  67  88 SW6       29.95R
6HR MIN TEMP:  71; 6HR MAX TEMP:  82;

MARION*        CLEAR     69  60  73 SW6       29.97R
6HR MIN TEMP:  49; 6HR MAX TEMP:  89;


$$
INZ028>050-040700-
CENTRAL INDIANA

CITY           SKY/WX    TMP DP  RH WIND       PRES   REMARKS
LAFAYETTE      CLEAR     70  68  93 CALM      29.95R
6HR MIN TEMP:  70; 6HR MAX TEMP:  83;

KOKOMO*        CLEAR     73  55  53 SW6       29.96S
6HR MIN TEMP:  72; 6HR MAX TEMP:  84;

MUNCIE*        CLEAR     73  66  78 SW6       29.97R
6HR MIN TEMP:  73; 6HR MAX TEMP:  80;

INDIANAPOLIS   CLEAR     73  67  81 SW6       29.96F
6HR MIN TEMP:  73; 6HR MAX TEMP:  84;


$$
MIZ043>046-050>051-056>058-064>065-071>073-077>080-040700-
SOUTHWEST LOWER MICHIGAN

CITY           SKY/WX    TMP DP  RH WIND       PRES   REMARKS
BATTLE CREEK   MOCLDY    71  68  90 NW5       29.94S
6HR MIN TEMP:  71; 6HR MAX TEMP:  83;

BENTON HARBOR  PTCLDY    68  66  93 CALM      29.95S
6HR MIN TEMP:  68; 6HR MAX TEMP:  73;

COLDWATER*     LGT RAIN  72  72  99 CALM      29.95R
6HR MIN TEMP:  71; 6HR MAX TEMP:  82;

HILLSDALE*     CLOUDY    70  70 100 CALM      29.96S
6HR MIN TEMP:  69; 6HR MAX TEMP:  82;

HOLLAND        PTCLDY    68  66  93 W3        29.95R
6HR MIN TEMP:  67; 6HR MAX TEMP:  74;

GRAND RAPIDS   CLOUDY    68  67  96 W6        29.94R
6HR MIN TEMP:  68; 6HR MAX TEMP:  77;

KALAMAZOO      MOCLDY    70  66  87 W5        29.95R
6HR MIN TEMP:  70; 6HR MAX TEMP:  82;

STURGIS*       PTCLDY    72  70  94 CALM      29.95R FOG
THREE RIVERS*  FAIR      71  68  91 CALM      29.95S
6HR MIN TEMP:  71; 6HR MAX TEMP:  83;


$$
OHZ001>008-015>018-024>025-040700-
NORTHWEST OHIO

CITY           SKY/WX    TMP DP  RH WIND       PRES   REMARKS
WAUSEON*       MOCLDY    72  72 100 E8G16     29.96R
DEFIANCE       MOCLDY    74  68  81 CALM      29.94R
6HR MIN TEMP:  74; 6HR MAX TEMP:  86;

FINDLAY        LGT RAIN  73  65  75 SE9       29.96R
6HR MIN TEMP:  73; 6HR MAX TEMP:  82; 6HR PCP: TRACE;

TOLEDO EXPRESS CLOUDY    68  66  93 NE8       29.98R
6HR MIN TEMP:  68; 6HR MAX TEMP:  82; 6HR PCP:  0.19;

TOLEDO METCALF CLOUDY    68  64  87 SE15      29.97F
6HR MIN TEMP:  68; 6HR MAX TEMP:  83; 6HR PCP:  0.41;

LIMA           MOCLDY    75  67  76 SW5       29.96S
6HR MIN TEMP:  75; 6HR MAX TEMP:  82;


$$
AND FOR LAKE MICHIGAN COASTAL AND OPEN LAKE BUOY OBSERVATIONS

STATION/POSITION TEMP    WIND        PRES    VSBY  WAVE
                 AIR SEA DIR/SP/G                  HT/PER
                 (F)     (DEG/KT/KT) (MB)    (MI)  (FT/S)
CALUMET HARBOR    71      30/  4/  6   N/A
MICHIGAN CITY     71      10/  9/ 10   N/A
BURNS HARBOR      72      50/ 10/ 11 1014.9S
SAINT JOSEPH      71     330/  4/  6 1015.2S
SOUTH LAKE BUOY   69 71  330/  6/  8 1013.7F         1/ 4
4 MI NW BRIDGMAN  71 73   40/  4/  6   N/A           2/ 4
MICHIGAN CITY     72 73   40/  6/  8   N/A           2/ 4

$$
&&


USA.gov is the U.S. government's official web portal to all federal, state and local government web resources and services.